Location: ?ejeti?ky
(50.4060°N, 14.9016°E)
Time: 21:05:09
(UTC+00:00)

STARLINK-1364 - Pass Details

Date: 02 October 2020
Orbit: 548 x 551 km, 53.0° (Epoch: 23 October)

Event Time Altitude Azimuth Distance (km) Brightness Sun altitude
Exits shadow 03:19:07 30° 292° (WNW) 1,005 4.5 -17.2°
Maximum altitude 03:20:59 59° 1° (N) 641 4.0 -16.9°
Drops below altitude 10° 03:25:05 10° 81° (E) 1,829 7.6 -16.2°
Sets 03:27:21 0° 86° (E) 2,724 8.9 -15.9°
